[[{"header":{"parameterUnit":"m.s-1","parameterCategory":2,"la1":30.2991,"la2":30.254,"lo1":-89.0895,"lo2":-89.0444,"dy":0.0017,"dx":0.0017,"nx":28,"ny":28,"refTime":"2024-04-11T03:00:00:Z","depth":"0","parameterNumber":2,"parameterNumberName":"U-component_of_CURRENTS"},"data":[0,0,0,0,0,0,0,0,0,0,0,0,0,0,0,0,0,0,0,0,0,0,0,0,0,0,0,0,0,0,0,0,0,0,0,0,0,0,0,0,0,0,0,0,0,0,0,0,0,0,0,0,0,0,0,0,0,0,0.1825,0.1826,0,0.1887,0.1888,0.1888,0.1899,0.1899,0.1899,0.1898,0.1912,0.1912,0.1913,0,0,0,0,0,0,0,0,0,0,0,0,0,0.1698,0.17,0.1825,0.1826,0.1827,0.1887,0.1888,0.1888,0.1899,0.1899,0.1899,0.1898,0.1912,0.1912,0.1913,0,0,0,0,0,0,0,0,0,0,0,0,0,0.1752,0.1701,0.1825,0.1843,0.1846,0.1887,0.1888,0.1888,0.1899,0.1899,0.1899,0.1898,0.1911,0.1912,0.1913,0.192,0,0,0.1915,0.1915,0,0,0,0,0,0,0,0,0.1749,0.1756,0.1839,0.1842,0.1845,0.1889,0.1848,0.1898,0.1899,0.1874,0.1898,0.1898,0.1903,0.1904,0.191,0.1921,0.1921,0.1915,0.1915,0.1916,0.1916,0,0,0,0,0,0,0,0.1745,0.1753,0.1845,0.1841,0.1844,0.1843,0.185,0.1858,0.1884,0.1876,0.1878,0.1893,0.1903,0.191,0.1911,0.1921,0.1915,0.1915,0.1916,0.1916,0.1971,0.1972,0,0,0,0,0,0,0.1748,0.175,0.1843,0.1847,0.1801,0.1846,0.1854,0.1871,0.1885,0.1889,0.1893,0.1893,0.1909,0.191,0.1911,0.1989,0.1916,0.1916,0.1917,0.197,0.1971,0.1972,0,0,0,0,0,0,0.1745,0.1756,0.1841,0.1803,0.1815,0.1849,0.1868,0.1873,0.1887,0.1899,0.1901,0.1904,0.1909,0.191,0.1954,0.1987,0.1917,0.1917,0.1968,0.197,0.1971,0.21,0,0,0,0,0,0,0.1741,0.1755,0.1768,0.1804,0.1817,0.1887,0.1869,0.1874,0.1898,0.1899,0.1909,0.191,0.1909,0.1953,0.1955,0.1986,0.1918,0.1967,0.1969,0.1971,0.2094,0.2106,0.2115,0,0,0,0,0,0.1737,0.1767,0.1769,0.178,0.1835,0.1889,0.1896,0.1915,0.1899,0.1922,0.1937,0.191,0.1965,0.1956,0.1957,0.1989,0.1966,0.1969,0.1971,0.209,0.2104,0.2115,0,0,0,0,0,0,0.1725,0.1773,0.1775,0.1819,0.1857,0.1893,0.1918,0.1919,0.1947,0.1944,0.194,0.1944,0.2,0.1967,0.1957,0.2006,0.1953,0.1956,0.2043,0.2056,0.2066,0.2047,0.1918,0,0,0,0,0,0.1727,0.176,0.1803,0.1839,0.186,0.1884,0.1905,0.1918,0.1948,0.1958,0.1968,0.1973,0.2007,0.2011,0.2033,0.2057,0.2054,0.2069,0.208,0.2089,0.2072,0.2124,0.2139,0.198,0.198,0.198,0,0,0.1726,0.1764,0.1777,0.1839,0.1865,0.1908,0.1896,0.1939,0.1975,0.1955,0.2005,0.2025,0.2027,0.2078,0.2093,0.2054,0.2139,0.2092,0.2101,0.2078,0.2128,0.2144,0.2158,0.1981,0.1981,0.1981,0,0,0.1759,0.1782,0.1822,0.1856,0.191,0.1931,0.1944,0.1985,0.2008,0.2053,0.2065,0.2103,0.2121,0.215,0.216,0.2229,0.221,0.2225,0.2249,0.2303,0.2317,0.2329,0.2379,0.2395,0.2211,0.2211,0.2211,0,0.1757,0.1815,0.1843,0.1894,0.1926,0.1942,0.1989,0.202,0.2069,0.2096,0.2079,0.2145,0.2155,0.2227,0.2255,0.2256,0.2278,0.2212,0.232,0.2331,0.2342,0.239,0.2405,0.2218,0.2217,0.2216,0.2216,0,0.1822,0.1862,0.1894,0.1958,0.1997,0.2041,0.2087,0.2125,0.2137,0.216,0.223,0.2253,0.2284,0.2299,0.2298,0.2378,0.2372,0.2351,0.2296,0.2366,0.2412,0.2426,0.2227,0.2225,0.2223,0.2221,0,0,0.1844,0.1918,0.1933,0.1955,0.2031,0.2064,0.2138,0.2207,0.2247,0.2278,0.2338,0.239,0.2388,0.2397,0.2411,0.2437,0.2551,0.2419,0.2419,0.2483,0.2679,0.2707,0.2725,0.2561,0.2564,0.2565,0.2695,0,0.1889,0.1971,0.2007,0.2073,0.2114,0.2151,0.2213,0.2271,0.2317,0.2381,0.2405,0.2467,0.2433,0.2463,0.2492,0.2545,0.2587,0.2517,0.2586,0.2587,0.2617,0.2741,0.2797,0.2919,0.2708,0.2711,0.2712,0,0.1956,0.1999,0.2071,0.212,0.2142,0.2176,0.2266,0.2325,0.242,0.2458,0.2512,0.2544,0.2616,0.2567,0.2666,0.2628,0.2659,0.2676,0.2682,0.2662,0.2641,0.2806,0.2952,0.2994,0.2733,0.2731,0.273,0,0.1964,0.2044,0.2094,0.2115,0.2182,0.2212,0.2247,0.2342,0.242,0.2517,0.2588,0.2645,0.2715,0.274,0.2785,0.2743,0.2885,0.2836,0.2888,0.289,0.2922,0.2923,0.3121,0.2907,0.2906,0.2906,0.2906,0,0.2,0.2033,0.2089,0.2106,0.2167,0.2206,0.2291,0.234,0.2456,0.2551,0.2623,0.2719,0.2765,0.2854,0.2844,0.2929,0.2945,0.292,0.2937,0.297,0.2974,0.2992,0.2966,0.2911,0.291,0.2909,0.2908,0,0.1995,0.2037,0.2086,0.2144,0.217,0.2207,0.2317,0.2378,0.249,0.2627,0.2673,0.2828,0.294,0.2986,0.306,0.3045,0.3054,0.3107,0.3142,0.3161,0.3215,0.3191,0.309,0.2993,0.3187,0.3189,0.319,0,0.1998,0.2035,0.2104,0.214,0.2158,0.2231,0.2288,0.2389,0.2466,0.2682,0.2741,0.2928,0.3047,0.3196,0.3222,0.3266,0.3144,0.3319,0.3234,0.326,0.3247,0.2994,0.2898,0.3343,0.3346,0.3348,0.3349,0,0.2013,0.204,0.2069,0.2145,0.2195,0.2258,0.233,0.2407,0.2536,0.2672,0.2837,0.2962,0.3173,0.3292,0.339,0.3391,0.324,0.3361,0.3398,0.3401,0.3128,0.303,0.3204,0.3368,0.3366,0.3365,0.3364,0.3363,0.2016,0.2051,0.2103,0.2155,0.2211,0.2249,0.228,0.2385,0.2514,0.2697,0.2835,0.3041,0.3336,0.3505,0.3467,0.3575,0.3356,0.357,0.3547,0.3289,0.3168,0.3375,0.3541,0.3541,0.354,0.3539,0.3539,0,0.2036,0.2072,0.212,0.2165,0.2179,0.2216,0.2289,0.2317,0.2429,0.2673,0.2837,0.3232,0.3457,0.3627,0.3872,0.3836,0.3539,0.3772,0.3488,0.3385,0.3655,0.3643,0.3829,0.3829,0.3829,0.3829,0.3829,0.3829,0.2053,0.2095,0.2109,0.2122,0.2139,0.2136,0.215,0.2221,0.2372,0.2657,0.2926,0.3147,0.3616,0.4058,0.4191,0.408,0.3778,0.3645,0.3491,0.3829,0.3808,0.3788,0.3776,0.3986,0.3986,0.3121,0.3116,0.3113]},{"header":{"parameterUnit":"m.s-1","parameterCategory":2,"la1":30.2991,"la2":30.254,"lo1":-89.0895,"lo2":-89.0444,"dy":0.0017,"dx":0.0017,"nx":28,"ny":28,"refTime":"2024-04-11T03:00:00:Z","depth":"0","parameterNumber":3,"parameterNumberName":"V-component_of_CURRENTS"},"data":[0,0,0,0,0,0,0,0,0,0,0,0,0,0,0,0,0,0,0,0,0,0,0,0,0,0,0,0,0,0,0,0,0,0,0,0,0,0,0,0,0,0,0,0,0,0,0,0,0,0,0,0,0,0,0,0,0,0,-0.0196,-0.0196,0,-0.0237,-0.0237,-0.0238,-0.0296,-0.0296,-0.0297,-0.0298,-0.0406,-0.0408,-0.041,0,0,0,0,0,0,0,0,0,0,0,0,0,-0.0219,-0.0218,-0.0196,-0.0196,-0.0196,-0.0236,-0.0237,-0.0238,-0.0295,-0.0296,-0.0297,-0.0298,-0.0405,-0.0408,-0.0411,0,0,0,0,0,0,0,0,0,0,0,0,0,-0.0232,-0.0218,-0.0196,-0.0227,-0.023,-0.0236,-0.0237,-0.0238,-0.0295,-0.0296,-0.0297,-0.0298,-0.0404,-0.0408,-0.0411,-0.041,0,0,-0.0421,-0.0423,0,0,0,0,0,0,0,0,-0.0231,-0.0231,-0.0222,-0.0225,-0.0229,-0.0259,-0.0285,-0.0298,-0.0295,-0.0274,-0.0298,-0.0299,-0.0361,-0.0368,-0.0376,-0.0415,-0.042,-0.0421,-0.0424,-0.0425,-0.0426,0,0,0,0,0,0,0,-0.023,-0.023,-0.0215,-0.0223,-0.0226,-0.0257,-0.026,-0.0288,-0.0314,-0.0276,-0.0279,-0.0279,-0.0363,-0.0373,-0.0379,-0.0422,-0.0421,-0.0424,-0.0426,-0.0428,-0.0533,-0.0534,0,0,0,0,0,0,-0.0215,-0.0228,-0.0214,-0.0216,-0.0229,-0.0255,-0.0259,-0.0251,-0.0313,-0.0322,-0.0278,-0.0281,-0.0366,-0.0375,-0.0383,-0.0444,-0.0425,-0.0428,-0.043,-0.0532,-0.0533,-0.0534,0,0,0,0,0,0,-0.0215,-0.0212,-0.0212,-0.0222,-0.0223,-0.0253,-0.0244,-0.0251,-0.0265,-0.0313,-0.0324,-0.0285,-0.0368,-0.0379,-0.0424,-0.0446,-0.043,-0.0433,-0.0531,-0.0532,-0.0533,-0.0528,0,0,0,0,0,0,-0.0215,-0.0212,-0.0204,-0.022,-0.0222,-0.0214,-0.0243,-0.0251,-0.0262,-0.0267,-0.0323,-0.0334,-0.0369,-0.0419,-0.0427,-0.0451,-0.0435,-0.053,-0.0532,-0.0533,-0.0527,-0.0529,-0.053,0,0,0,0,0,-0.0216,-0.0197,-0.0203,-0.0201,-0.0208,-0.0214,-0.0218,-0.0245,-0.0261,-0.0263,-0.0312,-0.0332,-0.0435,-0.0422,-0.0432,-0.0457,-0.0529,-0.0531,-0.0533,-0.0526,-0.0528,-0.053,0,0,0,0,0,0,-0.0195,-0.0201,-0.0208,-0.019,-0.02,-0.0222,-0.0224,-0.024,-0.0278,-0.0284,-0.0338,-0.0352,-0.042,-0.0425,-0.0409,-0.0491,-0.0487,-0.049,-0.0478,-0.048,-0.0482,-0.0383,-0.0438,0,0,0,0,0,-0.0185,-0.018,-0.0188,-0.0175,-0.0177,-0.0199,-0.0205,-0.0218,-0.0249,-0.0266,-0.0305,-0.0355,-0.0432,-0.0443,-0.0504,-0.0521,-0.0517,-0.0545,-0.0546,-0.0547,-0.0474,-0.0536,-0.0536,-0.054,-0.054,-0.054,0,0,-0.0168,-0.0175,-0.0168,-0.0171,-0.0183,-0.0172,-0.0207,-0.0206,-0.0209,-0.0271,-0.0295,-0.0374,-0.0446,-0.05,-0.0525,-0.0501,-0.0549,-0.055,-0.055,-0.0474,-0.0538,-0.0537,-0.0537,-0.0541,-0.0541,-0.054,0,0,-0.0131,-0.0142,-0.0121,-0.013,-0.0138,-0.0151,-0.0148,-0.0164,-0.019,-0.021,-0.0295,-0.0359,-0.0427,-0.0488,-0.0531,-0.0561,-0.0582,-0.0603,-0.0498,-0.0563,-0.0562,-0.0561,-0.0566,-0.0566,-0.0572,-0.0572,-0.0572,0,-0.0114,-0.0089,-0.0116,-0.0102,-0.0102,-0.0137,-0.0111,-0.014,-0.0171,-0.0182,-0.021,-0.0338,-0.0412,-0.049,-0.0507,-0.0562,-0.0579,-0.0493,-0.0563,-0.0562,-0.0561,-0.0566,-0.0566,-0.0572,-0.0572,-0.0572,-0.0572,0,-0.0057,-0.0045,-0.0036,-0.0032,-0.0033,-0.0023,-0.0052,-0.0061,-0.009,-0.0114,-0.0188,-0.0288,-0.0345,-0.0414,-0.0462,-0.0511,-0.0521,-0.0589,-0.0552,-0.0559,-0.0566,-0.0565,-0.0572,-0.0572,-0.0572,-0.0572,0,0,-0.0014,0.0003,0.0002,0.0022,0.0003,0.0016,0.0006,-0.0003,0.0004,-0.0052,-0.0055,-0.0195,-0.0232,-0.0278,-0.0381,-0.041,-0.0452,-0.0466,-0.047,-0.0455,-0.0549,-0.0556,-0.0556,-0.0548,-0.0548,-0.0548,-0.0559,0,0.0033,0.0084,0.0073,0.0118,0.0142,0.0109,0.0103,0.0087,0.006,0.0044,-0.0058,-0.0116,-0.0195,-0.0234,-0.0284,-0.0423,-0.0447,-0.0438,-0.0551,-0.0551,-0.0547,-0.0555,-0.0528,-0.0536,-0.0558,-0.0558,-0.0558,0,0.0086,0.0111,0.0169,0.0196,0.0204,0.0222,0.023,0.0221,0.0178,0.0162,0.0118,0.0031,-0.0036,-0.0118,-0.0262,-0.0256,-0.0367,-0.0457,-0.0463,-0.0448,-0.0557,-0.0531,-0.0534,-0.0726,-0.0557,-0.0557,-0.0557,0,0.0136,0.0175,0.0225,0.0231,0.0255,0.0273,0.0279,0.0261,0.0278,0.024,0.0268,0.0151,0.0107,-0.0038,-0.0208,-0.0243,-0.0355,-0.0453,-0.0549,-0.055,-0.0526,-0.0526,-0.0702,-0.0535,-0.0535,-0.0535,-0.0535,0,0.0182,0.022,0.0254,0.0285,0.0342,0.033,0.0388,0.0383,0.039,0.0443,0.0332,0.0355,0.0125,0.0022,-0.015,-0.0315,-0.0319,-0.0486,-0.055,-0.0527,-0.0526,-0.069,-0.082,-0.0535,-0.0535,-0.0535,-0.0535,0,0.0227,0.0243,0.0309,0.0354,0.0373,0.041,0.0479,0.0524,0.0524,0.0594,0.0594,0.0513,0.0389,0.017,-0.0064,-0.0225,-0.0522,-0.0475,-0.0393,-0.0447,-0.0718,-0.0847,-0.101,-0.1148,-0.0564,-0.0564,-0.0564,0,0.0252,0.0288,0.0375,0.0423,0.0448,0.0508,0.0558,0.0584,0.0658,0.0708,0.0759,0.066,0.0629,0.0311,-0.0015,-0.0295,-0.0525,-0.0461,-0.0531,-0.0686,-0.0879,-0.0962,-0.1074,-0.0503,-0.0502,-0.0502,-0.0502,0,0.0286,0.0318,0.0379,0.0504,0.0571,0.0667,0.0755,0.0843,0.0892,0.097,0.1056,0.1033,0.0725,0.046,0.0055,-0.0174,-0.061,-0.0463,-0.0669,-0.0852,-0.0905,-0.1085,-0.0511,-0.0499,-0.0499,-0.05,-0.05,-0.05,0.0311,0.036,0.0461,0.0584,0.0677,0.0835,0.0955,0.1069,0.1214,0.1385,0.131,0.1369,0.0948,0.0397,0.0018,-0.0579,-0.0625,-0.0737,-0.0877,-0.094,-0.1088,-0.0466,-0.0516,-0.0516,-0.0516,-0.0517,-0.0517,0,0.0355,0.0428,0.0543,0.0708,0.086,0.0901,0.11,0.1249,0.1466,0.1614,0.1706,0.1613,0.1032,0.0438,-0.0375,-0.0858,-0.1089,-0.1132,-0.1259,-0.1359,-0.0832,-0.0844,-0.0912,-0.0912,-0.0911,-0.0911,-0.0911,-0.0911,0.0375,0.05,0.0581,0.0844,0.0979,0.1216,0.1359,0.1571,0.1746,0.2025,0.2153,0.2182,0.1844,0.0232,-0.0878,-0.1218,-0.1639,-0.1697,-0.1924,-0.1572,-0.1546,-0.1521,-0.1563,-0.178,-0.1781,-0.238,-0.2386,-0.239]}],[{"header":{"parameterUnit":"m.s-1","parameterCategory":2,"la1":30.2991,"la2":30.254,"lo1":-89.0895,"lo2":-89.0444,"dy":0.0017,"dx":0.0017,"nx":28,"ny":28,"refTime":"2024-04-11T03:00:00:Z","depth":"2","parameterNumber":2,"parameterNumberName":"U-component_of_CURRENTS"},"data":[0,0,0,0,0,0,0,0,0,0,0,0,0,0,0,0,0,0,0,0,0,0,0,0,0,0,0,0,0,0,0,0,0,0,0,0,0,0,0,0,0,0,0,0,0,0,0,0,0,0,0,0,0,0,0,0,0,0,0.1761,0.1762,0,0.1822,0.1823,0.1823,0.1834,0.1834,0.1834,0.1834,0.1849,0.1849,0.185,0,0,0,0,0,0,0,0,0,0,0,0,0,0.1637,0.1639,0.1761,0.1762,0.1763,0.1822,0.1823,0.1823,0.1834,0.1834,0.1834,0.1834,0.1848,0.1849,0.185,0,0,0,0,0,0,0,0,0,0,0,0,0,0.169,0.164,0.176,0.1779,0.1781,0.1822,0.1823,0.1823,0.1834,0.1834,0.1834,0.1834,0.1848,0.1849,0.185,0.1857,0,0,0.1852,0.1852,0,0,0,0,0,0,0,0,0.1687,0.1694,0.1775,0.1778,0.1781,0.1824,0.1785,0.1834,0.1834,0.181,0.1834,0.1834,0.1839,0.1841,0.1847,0.1858,0.1859,0.1852,0.1853,0.1853,0.1853,0,0,0,0,0,0,0,0.1683,0.1691,0.1781,0.1776,0.178,0.1779,0.1786,0.1794,0.182,0.1812,0.1814,0.1828,0.184,0.1846,0.1847,0.1859,0.1852,0.1853,0.1853,0.1853,0.191,0.1911,0,0,0,0,0,0,0.1686,0.1688,0.1779,0.1783,0.1737,0.1782,0.1789,0.1807,0.1821,0.1825,0.1828,0.1828,0.1845,0.1846,0.1848,0.193,0.1853,0.1854,0.1854,0.1909,0.1911,0.1912,0,0,0,0,0,0,0.1683,0.1694,0.1776,0.174,0.1751,0.1785,0.1804,0.1808,0.1823,0.1835,0.1836,0.1839,0.1845,0.1847,0.1892,0.1927,0.1854,0.1855,0.1908,0.191,0.1911,0.2047,0,0,0,0,0,0,0.1679,0.1692,0.1703,0.174,0.1753,0.1822,0.1805,0.181,0.1833,0.1834,0.1845,0.1846,0.1845,0.1891,0.1893,0.1927,0.1855,0.1907,0.1909,0.1911,0.2041,0.2053,0.2063,0,0,0,0,0,0.1675,0.1702,0.1703,0.1714,0.1768,0.1824,0.1831,0.185,0.1834,0.1857,0.1874,0.1846,0.1903,0.1894,0.1895,0.193,0.1906,0.1908,0.191,0.2036,0.2051,0.2063,0,0,0,0,0,0,0.1661,0.1708,0.1709,0.175,0.179,0.1828,0.1854,0.1855,0.1883,0.1881,0.1877,0.1882,0.194,0.1905,0.1895,0.1947,0.1892,0.1895,0.1987,0.2,0.2011,0.1987,0.1856,0,0,0,0,0,0.1661,0.1693,0.1735,0.1772,0.1793,0.1818,0.1839,0.1853,0.1884,0.1895,0.1904,0.191,0.1948,0.1951,0.1975,0.2,0.1994,0.2014,0.2025,0.2035,0.2014,0.2064,0.2079,0.192,0.192,0.192,0,0,0.166,0.1698,0.1711,0.1771,0.18,0.1842,0.1831,0.1876,0.1913,0.1892,0.1943,0.1964,0.1968,0.2023,0.2038,0.1997,0.2084,0.2038,0.2047,0.2019,0.2069,0.2084,0.2098,0.1921,0.1921,0.1921,0,0,0.1696,0.1717,0.1756,0.179,0.1846,0.1867,0.1881,0.1922,0.1947,0.1993,0.2007,0.2045,0.2065,0.2096,0.2108,0.218,0.2159,0.2177,0.2199,0.2252,0.2266,0.2277,0.2327,0.2342,0.2162,0.2162,0.2162,0,0.1693,0.175,0.1778,0.1828,0.186,0.1879,0.1925,0.1959,0.2009,0.2036,0.2019,0.2086,0.21,0.2176,0.2206,0.2208,0.2229,0.2161,0.227,0.2281,0.2291,0.2338,0.2353,0.2169,0.2168,0.2168,0.2167,0,0.1759,0.1798,0.1831,0.1894,0.1933,0.198,0.2027,0.2064,0.2077,0.2101,0.2174,0.22,0.223,0.2249,0.225,0.2331,0.2324,0.2303,0.2244,0.2316,0.236,0.2374,0.2179,0.2176,0.2174,0.2173,0,0,0.1779,0.1854,0.187,0.1891,0.1968,0.2002,0.2077,0.2146,0.2187,0.2218,0.2278,0.2337,0.2335,0.2345,0.2363,0.2387,0.2503,0.2369,0.2369,0.2432,0.2627,0.265,0.2666,0.2513,0.2515,0.2517,0.2644,0,0.1825,0.1906,0.1942,0.2009,0.2049,0.2086,0.215,0.2209,0.2257,0.232,0.2349,0.2415,0.2381,0.2413,0.244,0.2496,0.2537,0.2469,0.2532,0.2533,0.2558,0.2682,0.2441,0.2537,0.2657,0.2659,0.2661,0,0.1892,0.1934,0.2006,0.2055,0.2076,0.2111,0.2201,0.2263,0.236,0.2398,0.2452,0.2487,0.2561,0.2512,0.261,0.2573,0.2605,0.2622,0.2628,0.2598,0.258,0.2474,0.2555,0.2682,0.2681,0.2679,0.2678,0,0.1898,0.1978,0.2029,0.205,0.2117,0.2148,0.2183,0.2279,0.2359,0.2459,0.2528,0.2587,0.2658,0.2682,0.2726,0.2686,0.2823,0.2778,0.2824,0.2826,0.2602,0.2581,0.2845,0.2845,0.2845,0.2844,0.2844,0,0.1929,0.1963,0.2025,0.2041,0.2105,0.2144,0.2231,0.228,0.2395,0.2491,0.2566,0.266,0.2706,0.2793,0.2783,0.2862,0.288,0.2853,0.2871,0.2647,0.2629,0.2714,0.2697,0.2849,0.2848,0.2847,0.2846,0,0.1919,0.1964,0.202,0.2081,0.2109,0.2149,0.2258,0.2318,0.243,0.2566,0.2614,0.2766,0.2875,0.292,0.2992,0.2975,0.3014,0.3032,0.2773,0.2759,0.2963,0.2951,0.3103,0.3105,0.3107,0.3108,0.311,0,0.1922,0.1961,0.2042,0.2082,0.2103,0.2178,0.2235,0.2332,0.2406,0.2619,0.2677,0.2861,0.2969,0.3111,0.3074,0.3099,0.3112,0.2926,0.2804,0.2993,0.2995,0.298,0.2967,0.2565,0.2562,0.2559,0.2557,0,0.1939,0.1974,0.2003,0.2088,0.2142,0.2206,0.2275,0.2348,0.2474,0.2598,0.2757,0.2872,0.3023,0.2969,0.3036,0.2994,0.2897,0.2879,0.3151,0.2554,0.2501,0.2498,0.2499,0.2533,0.2535,0.2537,0.2538,0.2539,0.195,0.1985,0.204,0.2097,0.2158,0.2196,0.2225,0.2289,0.24,0.2503,0.2676,0.2741,0.2817,0.2795,0.2731,0.2669,0.2858,0.2725,0.2726,0.2732,0.2663,0.2619,0.266,0.2663,0.2665,0.2667,0.267,0,0.1949,0.2002,0.2054,0.2104,0.2097,0.2162,0.2231,0.2197,0.2246,0.2356,0.2447,0.2311,0.2345,0.24,0.2284,0.2332,0.2211,0.2242,0.2052,0.2082,0.2108,0.1997,0.1822,0.1819,0.1816,0.1813,0,0,0.196,0.199,0.1999,0.2006,0.2047,0.2008,0.2022,0.1987,0.2008,0.1982,0.1998,0.2183,0.2343,0.2024,0.2025,0.1909,0.1952,0.1827,0.2518,0.2325,0.2345,0.242,0.2292,0,0,0,0,0]},{"header":{"parameterUnit":"m.s-1","parameterCategory":2,"la1":30.2991,"la2":30.254,"lo1":-89.0895,"lo2":-89.0444,"dy":0.0017,"dx":0.0017,"nx":28,"ny":28,"refTime":"2024-04-11T03:00:00:Z","depth":"2","parameterNumber":3,"parameterNumberName":"V-component_of_CURRENTS"},"data":[0,0,0,0,0,0,0,0,0,0,0,0,0,0,0,0,0,0,0,0,0,0,0,0,0,0,0,0,0,0,0,0,0,0,0,0,0,0,0,0,0,0,0,0,0,0,0,0,0,0,0,0,0,0,0,0,0,0,-0.0133,-0.0134,0,-0.0172,-0.0173,-0.0173,-0.0231,-0.0232,-0.0233,-0.0233,-0.0342,-0.0345,-0.0347,0,0,0,0,0,0,0,0,0,0,0,0,0,-0.0157,-0.0157,-0.0133,-0.0134,-0.0134,-0.0172,-0.0173,-0.0174,-0.0231,-0.0232,-0.0233,-0.0234,-0.0342,-0.0344,-0.0347,0,0,0,0,0,0,0,0,0,0,0,0,0,-0.0169,-0.0156,-0.0133,-0.0165,-0.0168,-0.0172,-0.0173,-0.0174,-0.0231,-0.0232,-0.0233,-0.0234,-0.0341,-0.0344,-0.0347,-0.0345,0,0,-0.0357,-0.0359,0,0,0,0,0,0,0,0,-0.0168,-0.0169,-0.016,-0.0163,-0.0166,-0.0195,-0.0221,-0.0234,-0.023,-0.021,-0.0233,-0.0235,-0.0297,-0.0304,-0.0312,-0.0351,-0.0355,-0.0358,-0.036,-0.0361,-0.0362,0,0,0,0,0,0,0,-0.0167,-0.0168,-0.0152,-0.016,-0.0164,-0.0193,-0.0196,-0.0224,-0.025,-0.0212,-0.0215,-0.0215,-0.03,-0.0309,-0.0315,-0.0357,-0.0358,-0.0361,-0.0363,-0.0364,-0.047,-0.0471,0,0,0,0,0,0,-0.0153,-0.0166,-0.015,-0.0153,-0.0167,-0.0192,-0.0195,-0.0187,-0.0249,-0.0258,-0.0214,-0.0217,-0.0302,-0.0311,-0.0319,-0.0384,-0.0361,-0.0364,-0.0366,-0.0469,-0.047,-0.0471,0,0,0,0,0,0,-0.0153,-0.0151,-0.0149,-0.0159,-0.016,-0.0189,-0.0181,-0.0187,-0.0202,-0.0249,-0.026,-0.0222,-0.0304,-0.0315,-0.036,-0.0386,-0.0366,-0.0369,-0.0468,-0.0469,-0.0471,-0.0473,0,0,0,0,0,0,-0.0153,-0.015,-0.0139,-0.0157,-0.0159,-0.0151,-0.0179,-0.0187,-0.0198,-0.0204,-0.0259,-0.027,-0.0305,-0.0355,-0.0363,-0.039,-0.0371,-0.0467,-0.0469,-0.047,-0.0471,-0.0474,-0.0476,0,0,0,0,0,-0.0154,-0.0132,-0.0138,-0.0137,-0.0143,-0.0151,-0.0155,-0.0182,-0.0197,-0.0201,-0.0249,-0.0269,-0.0371,-0.0358,-0.0368,-0.0396,-0.0466,-0.0468,-0.047,-0.0471,-0.0473,-0.0476,0,0,0,0,0,0,-0.0131,-0.0136,-0.0144,-0.0123,-0.0136,-0.0159,-0.0162,-0.0178,-0.0215,-0.0222,-0.0275,-0.0289,-0.036,-0.0362,-0.0346,-0.0431,-0.0424,-0.0427,-0.0421,-0.0424,-0.0426,-0.0323,-0.0374,0,0,0,0,0,-0.0119,-0.0113,-0.0121,-0.0109,-0.0111,-0.0136,-0.0142,-0.0155,-0.0187,-0.0204,-0.0242,-0.0292,-0.0371,-0.0382,-0.0445,-0.0461,-0.0455,-0.0487,-0.0489,-0.0491,-0.0414,-0.0475,-0.0475,-0.0477,-0.0477,-0.0477,0,0,-0.0103,-0.011,-0.0103,-0.0105,-0.0119,-0.0109,-0.0144,-0.0145,-0.015,-0.021,-0.0233,-0.0314,-0.0387,-0.0443,-0.0468,-0.0442,-0.0492,-0.0493,-0.0494,-0.0414,-0.0477,-0.0476,-0.0476,-0.0478,-0.0478,-0.0478,0,0,-0.0068,-0.0078,-0.0057,-0.0066,-0.0076,-0.009,-0.0087,-0.0104,-0.0131,-0.0152,-0.0238,-0.0303,-0.037,-0.0434,-0.0478,-0.0511,-0.053,-0.0554,-0.0447,-0.0511,-0.0511,-0.051,-0.0517,-0.0517,-0.0522,-0.0522,-0.0522,0,-0.0051,-0.0025,-0.0053,-0.0039,-0.0039,-0.0077,-0.0051,-0.0082,-0.0114,-0.0125,-0.0152,-0.0281,-0.0358,-0.0439,-0.0457,-0.0513,-0.0529,-0.0441,-0.0512,-0.0511,-0.051,-0.0517,-0.0517,-0.0522,-0.0522,-0.0522,-0.0522,0,0.0004,0.0017,0.0024,0.0029,0.0027,0.0035,0.0003,-0.0005,-0.0035,-0.0059,-0.0136,-0.0237,-0.0293,-0.0365,-0.0414,-0.0464,-0.0474,-0.0541,-0.05,-0.0509,-0.0518,-0.0517,-0.0522,-0.0522,-0.0522,-0.0522,0,0,0.0046,0.0063,0.0062,0.0081,0.0062,0.0073,0.0062,0.0051,0.0058,0.0002,-0.0002,-0.0146,-0.0182,-0.0229,-0.0334,-0.0362,-0.0406,-0.0417,-0.042,-0.0408,-0.0502,-0.0511,-0.0511,-0.0502,-0.0501,-0.0501,-0.0516,0,0.0091,0.0143,0.0133,0.0175,0.02,0.0166,0.0158,0.0142,0.0113,0.0097,-0.0007,-0.0068,-0.0147,-0.0188,-0.0235,-0.0377,-0.04,-0.0391,-0.0502,-0.0502,-0.0499,-0.051,-0.0472,-0.0482,-0.0515,-0.0515,-0.0515,0,0.0143,0.0168,0.0225,0.0253,0.026,0.0277,0.0285,0.0274,0.0229,0.0213,0.017,0.008,0.0012,-0.0069,-0.0213,-0.0207,-0.0318,-0.0409,-0.0415,-0.0396,-0.0508,-0.0476,-0.0479,-0.0514,-0.0514,-0.0514,-0.0514,0,0.0192,0.0231,0.028,0.0286,0.0309,0.0328,0.0333,0.0313,0.0329,0.0288,0.0317,0.0199,0.0153,0.001,-0.0162,-0.0196,-0.0307,-0.0405,-0.0502,-0.0504,-0.0467,-0.0466,-0.0485,-0.0485,-0.0485,-0.0485,-0.0485,0,0.024,0.0277,0.0308,0.0339,0.0394,0.0382,0.0437,0.0432,0.0439,0.0489,0.0378,0.0399,0.0172,0.0069,-0.0103,-0.0268,-0.0272,-0.0438,-0.0504,-0.0471,-0.0469,-0.049,-0.049,-0.0485,-0.0485,-0.0485,-0.0485,0,0.0287,0.0302,0.0363,0.0405,0.0423,0.0458,0.0527,0.0572,0.0571,0.0638,0.0637,0.0556,0.043,0.0212,-0.0021,-0.018,-0.036,-0.043,-0.0339,-0.0392,-0.0522,-0.0522,-0.052,-0.0521,-0.0521,-0.0521,-0.0521,0,0.0312,0.0345,0.0425,0.047,0.0493,0.0552,0.0602,0.0629,0.0703,0.075,0.08,0.0698,0.0662,0.0345,0.0028,-0.0251,-0.033,-0.0408,-0.0474,-0.0458,-0.0523,-0.0523,-0.0523,-0.0434,-0.0434,-0.0433,-0.0433,0,0.0344,0.0371,0.043,0.0549,0.0614,0.0708,0.0797,0.0885,0.0933,0.1007,0.1087,0.1058,0.0755,0.0478,0.0075,-0.0129,-0.0362,-0.0408,-0.0428,-0.0435,-0.038,-0.0443,-0.0446,-0.0429,-0.0429,-0.043,-0.043,-0.043,0.0363,0.0412,0.0509,0.0627,0.0717,0.0872,0.0992,0.1095,0.1233,0.1361,0.1301,0.1267,0.0926,0.0425,0.0072,-0.0317,-0.0319,-0.0459,-0.0459,-0.046,-0.0451,-0.0401,-0.0448,-0.0448,-0.0449,-0.0449,-0.0449,0,0.0416,0.048,0.059,0.075,0.0902,0.0938,0.1135,0.1262,0.1454,0.1508,0.1564,0.1269,0.0924,0.0517,-0.004,-0.0366,-0.0409,-0.048,-0.046,-0.046,-0.0462,-0.0453,-0.0451,-0.0452,-0.0453,-0.0454,0,0,0.044,0.0566,0.0648,0.0898,0.1021,0.1242,0.1381,0.154,0.1636,0.1729,0.1689,0.1554,0.1062,0.0662,0.0205,-0.0117,-0.0212,-0.0186,-0.0146,-0.0066,-0.0063,-0.041,-0.0393,0,0,0,0,0]}],[{"header":{"parameterUnit":"m.s-1","parameterCategory":2,"la1":30.2991,"la2":30.254,"lo1":-89.0895,"lo2":-89.0444,"dy":0.0017,"dx":0.0017,"nx":28,"ny":28,"refTime":"2024-04-11T03:00:00:Z","depth":"4","parameterNumber":2,"parameterNumberName":"U-component_of_CURRENTS"},"data":[0,0,0,0,0,0,0,0,0,0,0,0,0,0,0,0,0,0,0,0,0,0,0,0,0,0,0,0,0,0,0,0,0,0,0,0,0,0,0,0,0,0,0,0,0,0,0,0,0,0,0,0,0,0,0,0,0,0,0.0724,0.0724,0,0.0801,0.0802,0.0804,0.0868,0.0868,0.0868,0.0868,0.0961,0.0964,0.0966,0,0,0,0,0,0,0,0,0,0,0,0,0,0.0653,0.0654,0.0724,0.0724,0.0724,0.0801,0.0803,0.0804,0.0868,0.0868,0.0868,0.0868,0.0961,0.0963,0.0966,0,0,0,0,0,0,0,0,0,0,0,0,0,0.0709,0.0655,0.0724,0.076,0.0764,0.08,0.0803,0.0805,0.0868,0.0868,0.0868,0.0868,0.096,0.0963,0.0967,0.0987,0,0,0.0978,0.0979,0,0,0,0,0,0,0,0,0.0705,0.0712,0.0755,0.0758,0.0762,0.0819,0.0811,0.0864,0.0868,0.0836,0.0868,0.0868,0.0911,0.0918,0.0942,0.0992,0.0996,0.0978,0.098,0.0982,0.0983,0,0,0,0,0,0,0,0.0701,0.0709,0.0761,0.0755,0.0759,0.078,0.0788,0.0822,0.0877,0.0839,0.0842,0.0839,0.0914,0.0939,0.0945,0.0997,0.0978,0.0981,0.0984,0.0985,0.1102,0.1103,0,0,0,0,0,0,0.0677,0.0705,0.0759,0.0763,0.0725,0.078,0.079,0.0806,0.0877,0.0886,0.0839,0.0842,0.0932,0.094,0.0948,0.1032,0.0982,0.0985,0.0987,0.1101,0.1102,0.1103,0,0,0,0,0,0,0.0676,0.0682,0.0756,0.0729,0.0739,0.0781,0.0798,0.0807,0.0873,0.0876,0.0886,0.0898,0.0933,0.0943,0.0946,0.1034,0.0987,0.099,0.11,0.1101,0.1103,0.1164,0,0,0,0,0,0,0.0674,0.0681,0.0695,0.0728,0.0739,0.08,0.0798,0.0809,0.0865,0.0871,0.0929,0.0935,0.0934,0.094,0.0949,0.1038,0.0993,0.1099,0.1101,0.1102,0.1161,0.1167,0.1173,0,0,0,0,0,0.0671,0.0691,0.0696,0.0702,0.0754,0.08,0.0811,0.0843,0.0868,0.0904,0.0892,0.0936,0.0961,0.0941,0.0953,0.1045,0.1098,0.11,0.1102,0.1158,0.1166,0.1173,0,0,0,0,0,0,0.067,0.0699,0.0705,0.0734,0.077,0.0809,0.0846,0.0872,0.0901,0.0909,0.0918,0.0922,0.0989,0.098,0.096,0.108,0.1051,0.1055,0.109,0.1098,0.1104,0.1195,0.0996,0,0,0,0,0,0.0671,0.0695,0.0726,0.0751,0.0779,0.0824,0.0852,0.0876,0.0896,0.0916,0.0935,0.0959,0.1005,0.1013,0.1052,0.1084,0.1098,0.1158,0.1164,0.1169,0.1248,0.1265,0.1281,0.111,0.111,0.111,0,0,0.0673,0.0693,0.0706,0.0752,0.0793,0.0835,0.0847,0.0905,0.0928,0.0918,0.0959,0.0999,0.1021,0.107,0.1101,0.1069,0.1215,0.1172,0.1176,0.1255,0.1269,0.1286,0.1302,0.1111,0.1111,0.1111,0,0,0.069,0.0722,0.075,0.079,0.0843,0.0867,0.0894,0.0947,0.0969,0.1005,0.1013,0.109,0.1124,0.1164,0.119,0.1253,0.1266,0.1265,0.1353,0.1366,0.1382,0.1395,0.1395,0.1408,0.1242,0.1242,0.1242,0,0.0666,0.0735,0.0767,0.0812,0.0848,0.089,0.0938,0.0962,0.0996,0.1023,0.1028,0.1162,0.1197,0.1279,0.1316,0.1286,0.1267,0.132,0.1377,0.1391,0.1405,0.1401,0.1415,0.1245,0.1245,0.1245,0.1244,0,0.0734,0.0775,0.0809,0.0871,0.0909,0.0968,0.0996,0.1035,0.1081,0.1114,0.1227,0.1268,0.1349,0.1387,0.139,0.1508,0.1455,0.14,0.1364,0.1426,0.1417,0.143,0.125,0.1249,0.1248,0.1247,0,0,0.0711,0.0819,0.0838,0.0872,0.0954,0.0989,0.1037,0.1103,0.1158,0.1227,0.1307,0.1452,0.1505,0.1542,0.1553,0.1607,0.1693,0.1557,0.1556,0.157,0.1701,0.1639,0.1647,0.1616,0.162,0.1623,0.1641,0,0.0752,0.0819,0.0884,0.0962,0.1003,0.1064,0.1107,0.1164,0.1226,0.1295,0.1393,0.1493,0.1535,0.16,0.1659,0.1709,0.1739,0.1694,0.1633,0.1634,0.158,0.1666,0.1635,0.1652,0.1655,0.1657,0.1659,0,0.0813,0.085,0.0916,0.1001,0.1036,0.1094,0.1197,0.1238,0.1333,0.1392,0.1508,0.156,0.1708,0.1701,0.1832,0.1784,0.1779,0.1802,0.1799,0.1757,0.1601,0.1586,0.1683,0.1681,0.168,0.1678,0.1676,0,0.0781,0.0879,0.0925,0.0961,0.106,0.1123,0.119,0.1289,0.1354,0.146,0.1553,0.1659,0.1765,0.1796,0.1901,0.1844,0.2015,0.1895,0.1826,0.1817,0.1837,0.1822,0.197,0.197,0.197,0.197,0.1969,0,0.0793,0.0845,0.0924,0.0962,0.1044,0.1121,0.1239,0.1308,0.1441,0.1538,0.161,0.1713,0.1807,0.19,0.1916,0.1962,0.2007,0.1912,0.1847,0.1852,0.1839,0.1843,0.1829,0.197,0.197,0.197,0.197,0,0.0757,0.0807,0.0871,0.0986,0.103,0.1092,0.1276,0.1348,0.1491,0.1616,0.1667,0.1802,0.1918,0.1993,0.2071,0.2006,0.2031,0.2012,0.2063,0.1989,0.1798,0.1786,0.1897,0.1895,0.1894,0.1893,0.1892,0,0.073,0.0756,0.0872,0.0911,0.0982,0.1097,0.1171,0.1342,0.1429,0.1664,0.1708,0.1883,0.195,0.2016,0.2078,0.208,0.205,0.2018,0.1904,0.188,0.1805,0.1794,0.1784,0.189,0.189,0.189,0.189,0,0.0686,0.0741,0.0796,0.0877,0.0961,0.1059,0.1195,0.1268,0.146,0.1599,0.173,0.1798,0.1918,0.1963,0.2018,0.2001,0.2021,0.2004,0.2003,0.1895,0.1873,0.1797,0.1788,0.1885,0.1886,0.1886,0.1887,0,0.0661,0.068,0.0757,0.0839,0.0927,0.1013,0.1094,0.1221,0.1343,0.1591,0.1626,0.1787,0.1911,0.1925,0.197,0.1979,0.1901,0.1793,0.1801,0.1806,0.1775,0.1734,0.1703,0,0,0,0,0,0.0614,0.0654,0.0711,0.0803,0.0893,0.0963,0.1102,0.1186,0.1368,0.1422,0.1537,0.1633,0.1725,0.1795,0.1778,0.1903,0.1898,0.1872,0.1775,0.1863,0.1868,0.1842,0,0,0,0,0,0,0.0602,0.0647,0.0689,0.0768,0.0826,0.0931,0.102,0.1135,0.1182,0.1355,0.1408,0.153,0.1631,0.1726,0.1748,0.1769,0.1672,0.1967,0.1963,0.186,0.1864,0.1868,0.1844,0,0,0,0,0]},{"header":{"parameterUnit":"m.s-1","parameterCategory":2,"la1":30.2991,"la2":30.254,"lo1":-89.0895,"lo2":-89.0444,"dy":0.0017,"dx":0.0017,"nx":28,"ny":28,"refTime":"2024-04-11T03:00:00:Z","depth":"4","parameterNumber":3,"parameterNumberName":"V-component_of_CURRENTS"},"data":[0,0,0,0,0,0,0,0,0,0,0,0,0,0,0,0,0,0,0,0,0,0,0,0,0,0,0,0,0,0,0,0,0,0,0,0,0,0,0,0,0,0,0,0,0,0,0,0,0,0,0,0,0,0,0,0,0,0,0.0475,0.0475,0,0.0479,0.0479,0.0478,0.044,0.044,0.0439,0.0438,0.0362,0.036,0.0359,0,0,0,0,0,0,0,0,0,0,0,0,0,0.0462,0.0462,0.0475,0.0475,0.0475,0.0479,0.0479,0.0478,0.0441,0.044,0.0439,0.0438,0.0362,0.0361,0.0359,0,0,0,0,0,0,0,0,0,0,0,0,0,0.0464,0.0462,0.0475,0.0459,0.0458,0.0479,0.0479,0.0478,0.0441,0.044,0.0438,0.0437,0.0363,0.0361,0.0359,0.0372,0,0,0.0353,0.0352,0,0,0,0,0,0,0,0,0.0464,0.0464,0.0461,0.046,0.0459,0.046,0.0446,0.044,0.0441,0.0445,0.0438,0.0437,0.039,0.0386,0.0387,0.0368,0.0365,0.0353,0.0352,0.0351,0.035,0,0,0,0,0,0,0,0.0464,0.0464,0.0474,0.0461,0.046,0.0461,0.0459,0.0445,0.042,0.0444,0.0442,0.0447,0.0388,0.0389,0.0384,0.0364,0.0353,0.0351,0.035,0.0349,0.033,0.033,0,0,0,0,0,0,0.0468,0.0464,0.0474,0.0474,0.0461,0.0462,0.046,0.0459,0.0422,0.0417,0.0448,0.0445,0.0392,0.0387,0.0381,0.042,0.0351,0.0349,0.0348,0.0329,0.033,0.0331,0,0,0,0,0,0,0.0468,0.0469,0.0474,0.0471,0.0472,0.0464,0.0462,0.046,0.0447,0.0427,0.0419,0.0437,0.0391,0.0384,0.042,0.0416,0.0348,0.0347,0.0329,0.033,0.033,0.0481,0,0,0,0,0,0,0.0467,0.0469,0.0471,0.0472,0.0473,0.0482,0.0464,0.0461,0.0454,0.045,0.0415,0.0407,0.039,0.0424,0.0419,0.0412,0.0345,0.0328,0.0329,0.033,0.0475,0.0487,0.0497,0,0,0,0,0,0.0467,0.0487,0.0471,0.0472,0.0475,0.0483,0.0483,0.0471,0.0455,0.0454,0.0475,0.0408,0.0424,0.0426,0.0419,0.0411,0.0327,0.0329,0.033,0.047,0.0484,0.0496,0,0,0,0,0,0,0.0484,0.0485,0.0467,0.0485,0.0477,0.0477,0.0488,0.0469,0.0482,0.0484,0.0456,0.0453,0.05,0.0424,0.0426,0.0402,0.0346,0.0347,0.0455,0.0468,0.0479,0.0356,0.0344,0,0,0,0,0,0.0488,0.0505,0.0491,0.0507,0.0503,0.0489,0.049,0.0479,0.0491,0.0492,0.0467,0.0453,0.0499,0.0462,0.0488,0.0461,0.0372,0.0434,0.0445,0.0455,0.0348,0.0286,0.0281,0.0335,0.0335,0.0335,0,0,0.0495,0.0506,0.051,0.0513,0.0508,0.0506,0.0486,0.0493,0.05,0.0484,0.0489,0.0528,0.0522,0.0549,0.0544,0.0471,0.0411,0.0456,0.0466,0.035,0.0287,0.0281,0.0276,0.0336,0.0336,0.0336,0,0,0.0532,0.0529,0.0546,0.0539,0.0538,0.0531,0.0528,0.0512,0.0513,0.0534,0.0566,0.0582,0.0578,0.0578,0.0583,0.064,0.0529,0.0639,0.0528,0.0477,0.047,0.0463,0.0425,0.0413,0.0575,0.0576,0.0576,0,0.0552,0.0555,0.0552,0.0561,0.056,0.0538,0.0539,0.0548,0.0546,0.0546,0.054,0.0569,0.0579,0.0609,0.0623,0.066,0.0604,0.0503,0.049,0.048,0.047,0.0431,0.0416,0.0583,0.0582,0.0582,0.0581,0,0.0568,0.0579,0.0594,0.0592,0.059,0.0597,0.0592,0.0589,0.0581,0.0568,0.0596,0.0619,0.0598,0.0625,0.0633,0.0577,0.0563,0.0581,0.0459,0.0474,0.0434,0.0415,0.0594,0.0591,0.0589,0.0587,0,0,0.0597,0.0608,0.061,0.0611,0.0605,0.0608,0.0626,0.0623,0.0628,0.0596,0.0582,0.0625,0.0585,0.0578,0.0598,0.0485,0.0435,0.0453,0.0447,0.0415,0.031,0.0321,0.0302,0.0455,0.0451,0.0447,0.034,0,0.0611,0.0648,0.0637,0.0651,0.0657,0.0641,0.0661,0.0656,0.0653,0.0636,0.0606,0.0633,0.0593,0.0602,0.0492,0.0485,0.0375,0.0459,0.0289,0.0282,0.0292,0.0276,0.0434,0.0326,0.0321,0.0318,0.0316,0,0.0609,0.064,0.0673,0.0685,0.0683,0.0689,0.0695,0.0711,0.0694,0.0687,0.0632,0.0625,0.0526,0.0493,0.0328,0.0384,0.0304,0.0247,0.0245,0.0147,0.0254,0.0282,0.028,0.0283,0.0286,0.0288,0.029,0,0.0621,0.0652,0.0692,0.0692,0.0708,0.0719,0.0723,0.072,0.0744,0.0712,0.0703,0.0599,0.057,0.0415,0.0289,0.0306,0.0083,0.0139,0.006,0.0063,0.0021,0.0028,-0.0046,-0.0045,-0.0045,-0.0045,-0.0045,0,0.063,0.0653,0.0708,0.0717,0.0761,0.0751,0.0787,0.078,0.0777,0.0791,0.0726,0.0701,0.0529,0.041,0.0271,0.0096,0.0085,-0.0021,0.0006,0.0103,0.0119,0.0013,0.0021,-0.0049,-0.0048,-0.0047,-0.0047,0,0.0636,0.0671,0.0711,0.075,0.0772,0.0801,0.0839,0.0864,0.0854,0.0866,0.0856,0.0762,0.0609,0.0437,0.0216,0.0111,-0.0058,-0.0117,-0.0016,0.0031,-0.0039,-0.0021,-0.0222,-0.0223,-0.0224,-0.0225,-0.0226,0,0.0646,0.0679,0.0748,0.0788,0.0811,0.0865,0.0911,0.0913,0.0937,0.0904,0.0905,0.0775,0.0692,0.0392,0.0203,-0.0058,-0.0095,-0.0178,-0.0157,-0.012,-0.0072,-0.0053,-0.0035,-0.0227,-0.0228,-0.0228,-0.0228,0,0.0665,0.07,0.0743,0.0834,0.0892,0.0955,0.1003,0.1022,0.1024,0.1012,0.094,0.0792,0.062,0.0395,0.0187,0.0001,-0.0123,-0.0189,-0.0188,-0.0169,-0.0127,-0.0075,-0.0056,-0.0231,-0.0231,-0.0231,-0.023,0,0.0689,0.0731,0.0802,0.0873,0.0953,0.1014,0.1038,0.1054,0.1068,0.1017,0.0989,0.081,0.0699,0.0425,0.0234,0.0048,0.0005,-0.0049,-0.0056,-0.0055,0.0023,0.0103,0.0035,0,0,0,0,0,0.0713,0.076,0.0833,0.091,0.0984,0.1032,0.109,0.1107,0.1105,0.1061,0.1022,0.0864,0.0582,0.0464,0.0277,0.0213,-0.0028,-0.0012,-0.0094,-0.0251,-0.0247,-0.0184,0,0,0,0,0,0,0.0723,0.0802,0.0836,0.0928,0.0985,0.1075,0.1116,0.112,0.1088,0.1053,0.0908,0.0821,0.0551,0.069,0.0276,0.022,0.0142,-0.0146,-0.015,-0.0253,-0.0249,-0.0246,-0.0181,0,0,0,0,0]}]]